CZ-2D DEB

Satellite information

Favourite Embed

Satellite Type and Status

DEBRISIN ORBIT

Key statistics

Satellite CZ-2D DEB at a glance.

Uptime

5565

Days in orbit

Revolutions

≈ 15.1

Per day

Orbit

SSO

Sun Synchronous Orbit

Inclination

97.7

Latest

Satellite identification and parameters

Extended collection of information and parameters for CZ-2D DEB.

Object identification

Identified? True

Debris? True

Object name: CZ-2D DEB

International designator: 2010-027D

Object number (NORAD): 38299

Object ID (CCSDS): 38299

Country: PEOPLES REPUBLIC OF CHINA (PRC)

Current information (Y/N): Y

RCS size: SMALL

Orbital parameters

Period: 95.508 minutes

Inclination: 97.6899 deg

SMA: 6921.307 km

Apoapsis: 605.21 km

Periapsis: 481.135 km

RAAN: 106.1188 deg

Eccentricy: 0.00896329

Argument of periapsis: 253.9536 deg

Mean anomaly: 105.1807 deg

Mean motion: 15.07719478 rev/day

Mean motion (dot): 0.0002714 rev/day2

B* drag term: 0.0016196495 1/REarth

Two-line elements (TLE)

Creation date: Sept. 5, 2025, 7:38 p.m.

Reference frame: TEME

Reference center: EARTH

Epoch: Sept. 5, 2025, 1:39 p.m. UTC

TLE line 0: 0 CZ-2D DEB

TLE line 1: 1 38299U 10027D 25248.56912711 .00027140 00000-0 16196-2 0 9993

TLE line 2: 2 38299 97.6899 106.1188 0089633 253.9536 105.1807 15.07719478807824

Live tracking on map

Real-time ground track for satellite CZ-2D DEB.

In-orbit conjunctions

A list of the most updated potential collisions computed for object CZ-2D DEB.

Target Orbit TCA Probability of collision Miss distance Type
SL-14 R/B LEO 2024-09-19 01:41:35 0.0006380677 114.0 (m) ROCKET BODY

Associated space launch

CZ-2D DEB was lifted into orbit during the mission ‘Long March 2D | Shijian 12’, on board a Long March 2D space rocket.

The launch took place on June 15, 2010, 1:39 a.m. from Launch Area 4 (SLS-2 / 603).

For more information about the launch, click the button.

Launch to space Long March 2D | Shijian 12
Long March 2D | Shijian 12

Agency: N/A

Status: Launch Successful

Launch date: June 15, 2010, 1:39 a.m. UTC

Rocket: Long March 2D

Launch pad: Launch Area 4 (SLS-2 / 603)

Location: Jiuquan Satellite Launch Center, People's Republic of China

...

Latest news about this satellite

There are no fresh news available about this satellite. Check back as we update our databases every day.


Newsletter sign-up

Weekly statistics, charts and insights to help you stay on top of the space industry.